OBJECT_NAME,OBJECT_ID,EPOCH,MEAN_MOTION,ECCENTRICITY,INCLINATION,RA_OF_ASC_NODE,ARG_OF_PERICENTER,MEAN_ANOMALY,EPHEMERIS_TYPE,CLASSIFICATION_TYPE,NORAD_CAT_ID,ELEMENT_SET_NO,REV_AT_EPOCH,BSTAR,MEAN_MOTION_DOT,MEAN_MOTION_DDOT EUTELSAT 174A,2005-052A,2026-09-11T19:08:44.287584,1.00272399,.00059366,4.4324,75.4077,95.0003,281.5614,0,U,28924,999,5320,0,-.5E-7,0 EUTELSAT 33F,2006-032A,2026-09-12T03:47:54.910752,1.00274041,.0003314,1.8804,81.1512,90.1992,269.8930,0,U,29270,999,4817,0,.141E-5,0 EUTELSAT HOTBIRD 13C,2008-065A,2026-09-12T01:41:29.534208,1.00271073,.0003567,3.1680,78.0919,100.2872,147.7917,0,U,33459,999,4821,0,-.296E-5,0 EUTELSAT 36B,2009-065A,2026-09-12T03:52:46.945344,1.00269708,.0005726,0.7047,81.1747,87.1215,291.5791,0,U,36101,999,6158,0,.98E-6,0 EUTELSAT KA-SAT 9A,2010-069A,2026-09-12T03:40:55.581312,1.00272626,.0005432,0.0740,352.4093,181.1661,241.8272,0,U,37258,999,4487,0,.47E-6,0 EUTELSAT 7 WEST A,2011-051A,2026-09-12T03:36:18.524160,1.00271764,.0005982,0.0636,348.2766,184.9456,224.6964,0,U,37816,999,5474,0,-.75E-6,0 EUTELSAT 16A,2011-057A,2026-09-12T03:42:55.388736,1.00269970,.0005559,0.0871,61.4662,106.8567,254.5864,0,U,37836,999,820,0,.89E-6,0 EUTELSAT 21B,2012-062B,2026-09-12T03:44:32.733888,1.00269574,.000307,0.0698,345.8953,175.7872,267.2364,0,U,38992,999,5069,0,.115E-5,0 EUTELSAT 70B,2012-069A,2026-09-12T03:32:21.719904,1.00272202,.0003672,0.0654,1.2202,171.2698,302.2602,0,U,39020,999,5038,0,-.59E-6,0 EUTELSAT 117 WEST A,2013-012A,2026-09-12T03:05:06.516096,1.00272480,.0002826,0.0458,310.7223,223.1895,106.7094,0,U,39122,999,4930,0,-.28E-6,0 EUTELSAT 7B,2013-022A,2026-09-12T03:42:55.388736,1.00455773,.0002153,0.0695,339.3013,37.1158,46.2755,0,U,39163,999,4881,0,.109E-5,0 EXPRESS-AT1,2014-010A,2026-09-12T04:24:21.688704,1.00314873,.0004852,0.4762,84.6027,81.6859,325.7187,0,U,39612,999,4569,0,-.109E-5,0 EXPRESS-AT2,2014-010B,2026-09-12T03:54:24.288768,1.00273711,.0000721,0.0203,244.1044,45.1079,176.5623,0,U,39613,999,4537,0,.63E-6,0 EUTELSAT 3B,2014-030A,2026-09-12T03:39:18.237024,1.00272532,.0004095,0.0667,358.5176,171.6767,238.8854,0,U,39773,999,4493,0,.5E-7,0 EUTELSAT 115 WEST B,2015-010B,2026-09-12T03:05:43.954944,1.00272813,.0000207,0.0396,3.9082,74.4716,204.3030,0,U,40425,999,4225,0,-.4E-6,0 EUTELSAT 8 WEST B,2015-039B,2026-09-12T03:36:11.035008,1.00270774,.0003655,0.0672,346.7834,182.6631,227.8042,0,U,40875,999,4052,0,-.8E-6,0 EUTELSAT 9B,2016-005A,2026-09-12T03:41:03.068736,1.00272814,.0002419,0.0517,70.2204,138.4427,206.7553,0,U,41310,999,3898,0,.47E-6,0 EUTELSAT 65 WEST A,2016-014A,2026-09-12T03:19:50.102112,1.00273169,.0002191,0.0762,311.6788,214.4726,169.7639,0,U,41382,999,3839,0,-.291E-5,0 EUTELSAT 117 WEST B,2016-038B,2026-09-12T03:05:06.516096,1.00271804,.0000092,0.0347,18.7297,162.8400,98.8453,0,U,41589,999,3753,0,-.27E-6,0 EUTELSAT 172B,2017-029B,2026-09-12T02:44:53.454048,1.00271605,.0000103,0.0235,141.2316,258.7177,164.4062,0,U,42741,999,3462,0,-.21E-6,0 EUTELSAT 7C,2019-034B,2026-09-12T03:40:25.629024,1.00271245,.0003142,0.0702,178.8951,337.3168,257.0443,0,U,44334,999,770,0,.33E-6,0 EUTELSAT 5 WEST B,2019-067A,2026-09-12T03:37:03.452160,1.00271386,.0003121,0.0807,320.6569,210.2096,229.5591,0,U,44624,999,2529,0,-.57E-6,0 EUTELSAT KONNECT,2020-005B,2026-09-12T03:40:25.629024,1.00268472,.000108,0.0657,99.5241,79.1460,234.7933,0,U,45027,999,2520,0,.34E-6,0 EUTELSAT QUANTUM,2021-069B,2026-09-12T03:52:02.017344,1.00272070,.0002227,0.0183,73.4223,101.4136,282.0414,0,U,49056,999,1880,0,.111E-5,0 EUTELSAT KONNECT VHTS,2022-110A,2026-09-12T03:39:10.747872,1.00274845,.0003086,0.0549,105.2920,39.4767,263.9029,0,U,53765,999,770,0,.3E-7,0 EUTELSAT HOTBIRD 13F,2022-134A,2026-09-12T03:42:10.460736,1.00271390,.0001954,0.0639,293.3256,68.2735,58.1071,0,U,54048,999,1424,0,.72E-6,0 EUTELSAT HOTBIRD 13G,2022-146A,2026-09-12T01:59:27.811392,1.00271821,.0002108,0.0499,232.7421,307.3834,213.8287,0,U,54225,999,833,0,.72E-6,0 EUTELSAT 10B,2022-157A,2026-09-12T03:41:18.046176,1.00270142,.0001688,0.0554,102.8075,3.1902,310.5036,0,U,54259,999,1389,0,.53E-6,0 EUTELSAT 36D,2024-059A,2026-09-12T03:48:39.838752,1.00270314,.0000122,0.0019,186.2013,158.7178,99.2930,0,U,59346,999,901,0,.141E-5,0